Radiation Dose at Monitoring Post of Fukushima Daini Nuclear Power Station
Date,Time,MP-1(microSv/h),MP-2(microSv/h),MP-3(microSv/h),MP-4(microSv/h),MP-5(microSv/h),MP-6(microSv/h),MP-7(microSv/h),Wind Direction,Wind Velocity(m/s),Rain
2015/01/08,00:00,0.599,0.385,0.638,0.578,0.566,0.262,0.236,south-southwest,2.6,No
2015/01/08,00:10,0.599,0.381,0.637,0.579,0.567,0.263,0.235,-,CALM,No
2015/01/08,00:20,0.602,0.383,0.637,0.579,0.567,0.262,0.235,northeast,0.6,No
2015/01/08,00:30,0.601,0.381,0.638,0.579,0.568,0.263,0.235,northeast,0.8,No
2015/01/08,00:40,0.599,0.383,0.640,0.579,0.567,0.262,0.235,south-southeast,1.2,No
2015/01/08,00:50,0.599,0.381,0.637,0.578,0.566,0.261,0.235,-,CALM,No
2015/01/08,01:00,0.600,0.382,0.638,0.579,0.567,0.262,0.236,north-northwest,0.6,No
2015/01/08,01:10,0.600,0.384,0.640,0.578,0.567,0.263,0.235,west-southwest,1.8,No
2015/01/08,01:20,0.601,0.383,0.640,0.581,0.568,0.262,0.235,north-northwest,2.5,No
2015/01/08,01:30,0.600,0.382,0.638,0.578,0.567,0.262,0.235,north,3.8,No
2015/01/08,01:40,0.599,0.382,0.639,0.579,0.567,0.262,0.235,north-northwest,1.2,No
2015/01/08,01:50,0.599,0.383,0.637,0.579,0.568,0.262,0.237,north-northwest,1.6,No
2015/01/08,02:00,0.600,0.381,0.637,0.578,0.568,0.262,0.236,north,1.9,No
2015/01/08,02:10,0.600,0.383,0.636,0.578,0.564,0.262,0.234,northwest,0.6,No
2015/01/08,02:20,0.599,0.381,0.639,0.579,0.566,0.262,0.236,northwest,0.6,No
2015/01/08,02:30,0.599,0.382,0.637,0.577,0.568,0.262,0.235,-,CALM,No
2015/01/08,02:40,0.600,0.382,0.638,0.578,0.567,0.262,0.235,-,CALM,No
2015/01/08,02:50,0.599,0.383,0.638,0.578,0.567,0.261,0.236,-,CALM,No
2015/01/08,03:00,0.600,0.382,0.638,0.578,0.565,0.262,0.234,north-northwest,1.0,No
2015/01/08,03:10,0.600,0.382,0.637,0.577,0.566,0.261,0.236,north-northwest,4.2,No
2015/01/08,03:20,0.601,0.381,0.639,0.577,0.567,0.262,0.235,north-northwest,4.1,No
2015/01/08,03:30,0.598,0.381,0.638,0.577,0.567,0.261,0.235,north-northeast,1.7,No
2015/01/08,03:40,0.599,0.383,0.640,0.578,0.567,0.261,0.235,north-northwest,3.6,No
2015/01/08,03:50,0.600,0.381,0.637,0.579,0.567,0.262,0.235,north-northwest,3.6,No
2015/01/08,04:00,0.598,0.381,0.639,0.577,0.566,0.261,0.235,north,3.5,No
2015/01/08,04:10,0.598,0.382,0.639,0.578,0.567,0.261,0.235,north-northwest,2.4,No
2015/01/08,04:20,0.601,0.381,0.639,0.577,0.566,0.261,0.234,north,1.9,No
2015/01/08,04:30,0.600,0.381,0.638,0.579,0.567,0.262,0.234,north,0.8,No
2015/01/08,04:40,0.599,0.380,0.637,0.578,0.565,0.261,0.235,north,0.7,No
2015/01/08,04:50,0.600,0.381,0.639,0.578,0.566,0.261,0.235,-,CALM,No
2015/01/08,05:00,0.599,0.380,0.637,0.577,0.566,0.262,0.235,-,CALM,No
2015/01/08,05:10,0.601,0.381,0.637,0.577,0.566,0.261,0.235,-,CALM,No
2015/01/08,05:20,0.597,0.381,0.639,0.577,0.566,0.263,0.235,south-southeast,0.8,No
2015/01/08,05:30,0.599,0.381,0.637,0.577,0.566,0.261,0.233,south,1.4,No
2015/01/08,05:40,0.600,0.383,0.638,0.577,0.568,0.262,0.236,south,1.4,No
2015/01/08,05:50,0.598,0.382,0.637,0.576,0.566,0.261,0.235,south,1.9,No
2015/01/08,06:00,0.599,0.381,0.638,0.577,0.565,0.261,0.235,south,2.0,No
2015/01/08,06:10,0.599,0.381,0.638,0.577,0.567,0.261,0.235,south,2.8,No
2015/01/08,06:20,0.599,0.382,0.640,0.576,0.568,0.261,0.235,south-southwest,3.6,No
2015/01/08,06:30,0.600,0.381,0.637,0.577,0.563,0.260,0.235,southwest,3.0,No
2015/01/08,06:40,0.600,0.382,0.638,0.579,0.566,0.262,0.234,southwest,1.8,No
2015/01/08,06:50,0.599,0.381,0.637,0.578,0.566,0.261,0.235,west,0.8,No
2015/01/08,07:00,0.597,0.381,0.637,0.576,0.564,0.261,0.235,west,1.5,No
2015/01/08,07:10,0.600,0.381,0.636,0.578,0.566,0.261,0.235,-,CALM,No
2015/01/08,07:20,0.599,0.382,0.637,0.578,0.566,0.261,0.234,north,1.5,No
2015/01/08,07:30,0.599,0.380,0.637,0.577,0.566,0.260,0.235,north-northwest,2.7,No
2015/01/08,07:40,0.599,0.381,0.637,0.576,0.566,0.261,0.233,north-northwest,4.1,No
2015/01/08,07:50,0.599,0.382,0.639,0.577,0.566,0.260,0.234,north-northwest,4.7,No
2015/01/08,08:00,0.599,0.382,0.638,0.576,0.565,0.262,0.234,north-northwest,4.8,No
2015/01/08,08:10,0.599,0.382,0.639,0.578,0.567,0.261,0.235,north-northwest,2.8,No
2015/01/08,08:20,0.598,0.382,0.638,0.578,0.566,0.261,0.234,north,4.6,No
2015/01/08,08:30,0.599,0.382,0.638,0.577,0.566,0.261,0.233,north,2.7,No
2015/01/08,08:40,0.599,0.381,0.639,0.578,0.567,0.260,0.235,north,3.3,No
2015/01/08,08:50,0.599,0.383,0.638,0.578,0.567,0.260,0.234,north,3.1,No
2015/01/08,09:00,0.599,0.382,0.638,0.579,0.568,0.261,0.233,north-northwest,2.2,No
2015/01/08,09:10,0.597,0.382,0.638,0.578,0.565,0.260,0.235,northwest,2.2,No
2015/01/08,09:20,0.600,0.382,0.638,0.579,0.566,0.261,0.235,north-northwest,2.1,No
2015/01/08,09:30,0.601,0.382,0.638,0.579,0.567,0.261,0.234,north-northwest,2.2,No
2015/01/08,09:40,0.600,0.382,0.639,0.579,0.566,0.260,0.234,north-northwest,1.7,No
2015/01/08,09:50,0.600,0.382,0.639,0.577,0.567,0.261,0.234,north-northwest,3.7,No
2015/01/08,10:00,0.600,0.383,0.637,0.580,0.568,0.261,0.234,northwest,3.3,No
2015/01/08,10:10,0.600,0.381,0.637,0.579,0.566,0.262,0.233,north-northwest,4.6,No
2015/01/08,10:20,0.600,0.383,0.638,0.578,0.566,0.260,0.234,west-northwest,2.9,No
2015/01/08,10:30,0.601,0.382,0.639,0.579,0.567,0.262,0.234,west-northwest,3.3,No
2015/01/08,10:40,0.598,0.382,0.640,0.579,0.566,0.260,0.234,northwest,4.3,No
2015/01/08,10:50,0.601,0.382,0.636,0.579,0.566,0.261,0.235,north-northwest,4.2,No
2015/01/08,11:00,0.600,0.383,0.640,0.579,0.567,0.262,0.234,west-northwest,3.4,No
2015/01/08,11:10,0.600,0.382,0.638,0.579,0.568,0.261,0.235,west-northwest,4.7,No
2015/01/08,11:20,0.600,0.383,0.638,0.578,0.566,0.260,0.235,west,9.0,No
2015/01/08,11:30,0.601,0.383,0.639,0.580,0.565,0.260,0.233,west-northwest,8.5,No
2015/01/08,11:40,0.602,0.383,0.639,0.580,0.565,0.262,0.233,west-northwest,5.8,No
2015/01/08,11:50,0.601,0.383,0.640,0.580,0.568,0.261,0.235,west-northwest,7.1,No
2015/01/08,12:00,0.601,0.385,0.640,0.579,0.568,0.260,0.233,west-northwest,7.4,No
2015/01/08,12:10,0.601,0.383,0.639,0.579,0.566,0.262,0.235,west-northwest,5.1,No
2015/01/08,12:20,0.601,0.382,0.639,0.580,0.568,0.261,0.234,west-northwest,4.5,No
2015/01/08,12:30,0.602,0.385,0.639,0.581,0.569,0.261,0.235,west-northwest,8.1,No
2015/01/08,12:40,0.601,0.383,0.640,0.579,0.567,0.262,0.235,northwest,6.8,No
2015/01/08,12:50,0.603,0.384,0.638,0.580,0.569,0.261,0.234,west-northwest,7.3,No
2015/01/08,13:00,0.601,0.384,0.640,0.578,0.567,0.260,0.235,west-northwest,8.2,No
2015/01/08,13:10,0.601,0.384,0.638,0.581,0.566,0.262,0.235,west-northwest,6.1,No
2015/01/08,13:20,0.604,0.383,0.640,0.580,0.568,0.261,0.234,west-northwest,7.5,No
2015/01/08,13:30,0.603,0.383,0.640,0.581,0.567,0.262,0.236,west-northwest,3.0,No
2015/01/08,13:40,0.602,0.382,0.640,0.578,0.568,0.261,0.234,west-northwest,5.4,No
2015/01/08,13:50,0.601,0.382,0.640,0.581,0.569,0.261,0.236,west-northwest,4.8,No
2015/01/08,14:00,0.602,0.383,0.639,0.580,0.568,0.261,0.235,west-northwest,4.5,No
2015/01/08,14:10,0.602,0.384,0.640,0.579,0.564,0.261,0.235,west-northwest,5.2,No
2015/01/08,14:20,0.603,0.384,0.638,0.579,0.567,0.261,0.235,northwest,4.9,No
2015/01/08,14:30,0.601,0.383,0.641,0.579,0.567,0.262,0.236,west-northwest,6.4,No
2015/01/08,14:40,0.603,0.384,0.638,0.579,0.566,0.261,0.234,northwest,6.1,No
2015/01/08,14:50,0.602,0.383,0.639,0.578,0.567,0.260,0.235,northwest,6.4,No
2015/01/08,15:00,0.601,0.384,0.639,0.577,0.569,0.262,0.235,northwest,3.1,No
2015/01/08,15:10,0.601,0.384,0.638,0.578,0.565,0.262,0.236,west-northwest,6.4,No
2015/01/08,15:20,0.600,0.385,0.639,0.579,0.568,0.262,0.235,west-northwest,5.1,No
2015/01/08,15:30,0.602,0.384,0.639,0.577,0.567,0.261,0.236,west-northwest,4.3,No
2015/01/08,15:40,0.601,0.382,0.639,0.578,0.567,0.260,0.237,west-northwest,4.5,No
2015/01/08,15:50,0.601,0.383,0.640,0.579,0.567,0.261,0.235,north-northwest,1.9,No
2015/01/08,16:00,0.602,0.382,0.639,0.579,0.567,0.261,0.237,north-northwest,2.4,No
2015/01/08,16:10,0.601,0.383,0.641,0.578,0.567,0.260,0.236,west-northwest,3.3,No
2015/01/08,16:20,0.601,0.382,0.638,0.577,0.567,0.261,0.236,west,6.1,No
2015/01/08,16:30,0.601,0.383,0.639,0.579,0.567,0.261,0.234,west-northwest,6.1,No
2015/01/08,16:40,0.602,0.383,0.639,0.580,0.568,0.262,0.236,northwest,2.8,No
2015/01/08,16:50,0.604,0.383,0.638,0.578,0.566,0.261,0.236,northwest,2.5,No
2015/01/08,17:00,0.601,0.384,0.639,0.578,0.566,0.262,0.235,northwest,3.2,No
2015/01/08,17:10,0.601,0.383,0.638,0.578,0.568,0.262,0.235,northwest,2.2,No
2015/01/08,17:20,0.600,0.384,0.637,0.578,0.565,0.262,0.236,west-northwest,3.6,No
2015/01/08,17:30,0.603,0.383,0.639,0.579,0.566,0.262,0.235,northwest,3.6,No
2015/01/08,17:40,0.600,0.382,0.639,0.578,0.569,0.263,0.236,north-northwest,3.5,No
2015/01/08,17:50,0.602,0.383,0.640,0.577,0.567,0.261,0.235,north-northwest,1.7,No
2015/01/08,18:00,0.601,0.381,0.640,0.579,0.567,0.263,0.235,west-northwest,2.7,No
2015/01/08,18:10,0.601,0.383,0.637,0.580,0.565,0.261,0.236,northwest,0.6,No
2015/01/08,18:20,0.603,0.382,0.639,0.577,0.567,0.262,0.236,northwest,1.9,No
2015/01/08,18:30,0.603,0.383,0.639,0.578,0.568,0.261,0.236,northwest,3.7,No
2015/01/08,18:40,0.604,0.381,0.639,0.579,0.568,0.265,0.234,northwest,2.3,No
2015/01/08,18:50,0.601,0.382,0.640,0.578,0.567,0.263,0.235,northwest,1.7,No
2015/01/08,19:00,0.602,0.384,0.639,0.577,0.567,0.263,0.235,west,0.9,No
2015/01/08,19:10,0.601,0.382,0.637,0.578,0.565,0.262,0.235,northwest,1.5,No
2015/01/08,19:20,0.603,0.382,0.638,0.578,0.567,0.263,0.236,west-northwest,2.1,No
2015/01/08,19:30,0.602,0.382,0.638,0.578,0.567,0.262,0.235,west,3.1,No
2015/01/08,19:40,0.600,0.383,0.639,0.578,0.568,0.262,0.235,west-northwest,2.1,No
2015/01/08,19:50,0.604,0.383,0.638,0.577,0.568,0.263,0.235,west,0.9,No
2015/01/08,20:00,0.602,0.383,0.636,0.579,0.567,0.262,0.235,west,1.1,No
2015/01/08,20:10,0.601,0.382,0.638,0.580,0.566,0.262,0.235,west-northwest,0.6,No
2015/01/08,20:20,0.602,0.382,0.641,0.577,0.566,0.261,0.236,northwest,2.3,No
2015/01/08,20:30,0.602,0.384,0.638,0.579,0.568,0.261,0.235,west-northwest,2.0,No
2015/01/08,20:40,0.600,0.382,0.639,0.578,0.566,0.262,0.234,west-northwest,1.6,No
2015/01/08,20:50,0.602,0.382,0.640,0.579,0.566,0.263,0.236,north-northwest,1.6,No
2015/01/08,21:00,0.602,0.383,0.638,0.577,0.569,0.261,0.234,north,1.7,No
2015/01/08,21:10,0.604,0.382,0.639,0.579,0.565,0.260,0.234,north-northwest,1.2,No
2015/01/08,21:20,0.602,0.383,0.637,0.576,0.566,0.261,0.236,north-northwest,2.4,No
2015/01/08,21:30,0.599,0.382,0.638,0.580,0.566,0.261,0.235,west-northwest,1.2,No
2015/01/08,21:40,0.601,0.382,0.638,0.579,0.565,0.261,0.234,north-northwest,2.3,No
2015/01/08,21:50,0.601,0.381,0.639,0.579,0.567,0.261,0.236,north-northeast,2.7,No
2015/01/08,22:00,0.602,0.382,0.638,0.579,0.566,0.262,0.235,north-northwest,1.6,No
2015/01/08,22:10,0.603,0.381,0.638,0.580,0.566,0.263,0.236,west-northwest,2.2,No
2015/01/08,22:20,0.602,0.382,0.640,0.579,0.566,0.263,0.235,west-northwest,1.0,No
2015/01/08,22:30,0.601,0.381,0.638,0.577,0.568,0.261,0.234,northwest,1.2,No
2015/01/08,22:40,0.600,0.383,0.640,0.579,0.566,0.263,0.236,west-northwest,2.2,No
2015/01/08,22:50,0.602,0.381,0.638,0.577,0.567,0.263,0.236,west-southwest,1.1,No
2015/01/08,23:00,0.603,0.381,0.638,0.579,0.567,0.262,0.236,northwest,1.1,No
2015/01/08,23:10,0.602,0.381,0.638,0.577,0.565,0.263,0.236,west-northwest,2.8,No
2015/01/08,23:20,0.602,0.382,0.638,0.578,0.567,0.262,0.235,west-northwest,2.5,No
2015/01/08,23:30,0.602,0.381,0.639,0.579,0.568,0.262,0.235,west-northwest,4.0,No
2015/01/08,23:40,0.603,0.381,0.638,0.578,0.566,0.263,0.235,west-northwest,3.1,No
2015/01/08,23:50,0.600,0.382,0.637,0.579,0.567,0.262,0.235,north-northwest,2.8,No
